Wind_Speed
38 36 33 30 32 32 33 32 33 34 34 34 35 31 26 27 36 33 28 24 23 25 29 33 32 31 33 31 32 38 37 40 41 45 48 49 49 48 50 51 53 50 52 51 51 49 43
36 34 32 30 30 31 34 32 33 32 32 33 34 32 26 29 32 32 33 31 34 37 36 38 38 36 36 37 37 40 41 43 45 47 49 50 51 50 51 52 52 53 55 53 52 52 47
34 33 32 30 29 32 34 32 32 32 31 31 34 33 27 26 36 35 33 36 32 34 35 39 43 42 41 43 46 47 48 50 50 51 51 53 54 51 53 53 55 55 54 54 55 55 53
34 32 31 32 31 33 33 32 30 30 30 31 32 30 28 26 26 34 35 40 42 40 42 43 46 45 48 49 50 48 48 46 51 53 52 53 53 51 53 56 56 55 55 58 58 59 59
34 32 32 32 35 33 33 29 28 28 29 29 28 27 27 26 26 30 31 35 40 41 42 44 48 51 52 49 49 48 50 50 50 51 52 52 52 54 55 55 58 59 60 62 62 63 63
34 33 35 34 36 32 30 28 28 28 29 29 27 25 24 25 26 29 33 35 35 37 40 42 44 43 45 48 50 53 54 54 53 54 56 58 59 60 61 62 64 65 68 68 67 68 69
35 36 35 36 36 32 28 27 28 27 30 31 28 24 25 27 29 32 34 36 39 41 43 45 48 49 52 50 51 54 56 57 59 60 62 65 66 65 66 68 70 70 73 74 72 71 73
35 36 35 36 35 29 27 27 27 28 30 31 28 27 28 26 33 35 35 36 41 42 43 46 47 50 53 56 58 59 61 62 65 67 69 70 72 73 74 76 77 78 79 80 81 80 80
36 37 35 34 31 28 27 27 27 31 32 29 27 29 30 29 28 33 40 42 43 46 45 46 50 53 57 60 63 65 68 71 73 74 75 76 76 78 80 82 83 85 87 87 88 89 90
35 34 31 28 28 26 27 27 30 32 32 31 29 30 29 29 30 33 36 41 44 47 50 52 57 62 66 68 72 74 76 77 78 79 81 82 84 85 86 87 90 91 91 91 91 91 93
35 32 29 27 27 26 27 30 31 32 33 32 31 29 25 30 33 39 42 45 50 54 58 58 63 68 72 73 73 74 74 75 77 78 78 80 81 81 82 83 84 85 86 87 88 89 90
30 27 27 27 25 26 28 30 33 35 32 29 28 24 24 24 27 32 39 46 51 55 58 60 63 65 66 67 68 70 71 72 74 76 78 79 80 80 81 82 83 84 86 87 88 89 88
25 24 24 22 24 25 29 33 33 28 25 24 24 25 28 31 35 37 41 46 50 57 59 62 63 64 64 65 65 65 66 67 68 69 71 72 75 76 77 78 79 81 82 84 83 84 88
22 20 19 19 22 27 27 25 21 19 19 17 15 18 23 28 33 38 42 48 53 58 62 61 61 60 60 59 57 56 57 59 59 60 63 64 67 68 71 72 73 75 77 79 80 80 84
17 15 15 18 18 16 15 13 10 6 8 12 17 22 26 29 33 38 43 46 51 58 60 59 57 54 49 47 47 47 48 49 51 52 52 54 55 57 58 59 61 62 64 65 66 67 69
11 11 13 10 10 11 7 6 6 9 12 16 21 22 25 29 33 36 39 46 52 57 57 54 50 46 41 38 37 36 37 38 38 38 39 40 40 40 41 42 44 45 47 48 50 51 54
9 11 9 9 8 6 7 7 9 13 16 17 19 24 26 28 31 34 39 42 49 54 52 51 46 39 33 28 26 25 26 25 25 25 26 25 24 25 27 29 32 34 37 39 40 42 44
12 12 8 7 8 10 10 10 14 15 15 17 20 22 25 26 30 33 37 42 48 52 49 48 40 33 26 22 19 17 14 14 14 15 16 18 17 17 17 20 22 26 28 30 30 30 31
13 9 7 8 9 11 10 13 12 13 15 17 19 20 22 25 30 33 36 42 47 51 51 50 41 31 26 21 17 12 11 11 12 14 13 14 16 19 19 19 20 22 22 24 24 22 22
12 10 7 8 9 6 8 9 10 12 14 15 16 19 24 28 31 35 36 41 47 51 53 51 42 33 25 20 16 13 13 13 12 11 14 16 17 17 16 14 14 15 16 17 20 20 19
9 7 6 1 5 7 8 10 12 12 13 15 18 22 27 32 34 37 36 40 47 50 53 51 44 35 27 23 20 15 16 17 12 11 12 14 17 16 18 19 18 19 21 22 24 23 21
8 5 10 10 9 9 13 15 15 15 17 19 23 26 31 35 37 39 39 41 47 50 53 53 48 38 28 23 21 19 17 15 11 10 10 15 18 18 19 21 25 25 29 29 28 26 21
10 15 11 8 8 10 12 16 17 18 21 23 26 29 33 36 40 42 44 40 45 50 53 54 52 43 31 26 23 22 19 16 11 9 11 14 19 21 22 24 27 29 30 32 35 32 25
17 14 10 8 9 10 12 16 17 19 22 25 28 31 34 37 39 44 47 46 44 49 54 56 56 49 40 28 24 24 25 19 15 12 14 16 16 18 22 25 27 28 30 30 33 35 34
17 16 14 12 11 10 10 13 15 18 20 24 30 31 35 37 40 42 46 48 48 48 51 55 56 53 43 36 30 28 29 33 15 10 11 12 14 17 22 24 24 24 25 27 27 30 32
13 11 9 8 9 11 11 15 15 18 21 22 26 32 34 36 39 42 43 46 49 49 48 51 54 52 50 42 39 37 34 30 30 28 21 18 20 26 27 27 26 24 20 21 21 23 26
9 5 3 4 6 4 6 10 16 19 19 21 24 29 30 34 37 41 42 44 47 49 47 46 49 50 49 48 49 50 49 49 45 38 30 26 26 29 33 35 35 26 16 12 14 18 24
6 7 7 7 8 7 8 9 10 17 19 18 22 27 28 31 34 37 41 43 43 44 47 45 44 45 46 47 47 47 49 50 50 49 48 48 48 48 46 45 46 33 19 11 14 17 22
11 11 10 11 10 9 12 12 15 18 20 16 18 25 26 28 29 32 36 39 41 40 41 45 46 42 41 42 42 43 44 44 45 46 47 47 46 46 42 40 41 41 32 22 27 25 25
Wind_Direction
256 261 262 257 257 255 258 259 267 274 275 280 284 285 285 258 245 250 244 252 249 240 238 242 241 244 247 259 263 257 260 253 255 254 253 255 257 259 258 255 253 257 263 258 255 256 259
253 260 261 258 251 254 256 260 267 274 277 281 283 284 285 254 246 244 247 256 252 252 256 256 250 250 258 266 266 270 267 266 269 265 257 255 256 255 255 256 259 261 263 259 257 258 259
250 254 257 255 250 249 256 260 267 273 276 280 285 286 283 263 243 243 248 247 254 257 256 255 260 262 267 270 269 274 271 270 264 260 257 256 255 255 254 255 259 260 261 258 259 259 261
242 247 253 245 245 247 255 262 267 272 275 280 286 286 283 267 249 246 251 250 255 256 256 260 263 265 270 267 271 270 265 259 258 259 259 259 260 258 259 258 257 257 258 258 260 261 264
237 242 241 241 242 249 254 264 268 272 277 283 291 285 282 264 255 249 250 255 253 260 260 265 266 267 268 266 266 257 259 258 259 261 261 261 263 262 263 262 258 259 258 259 258 261 262
237 241 232 238 243 251 260 263 268 276 279 285 290 278 289 271 263 261 256 258 265 263 263 264 263 260 258 258 256 257 257 260 261 260 259 262 263 262 263 263 262 262 262 261 260 261 262
234 236 235 237 242 255 258 263 269 279 285 291 288 280 292 271 260 264 267 265 265 269 267 266 269 274 272 269 265 265 266 264 263 263 262 263 263 263 262 262 262 261 261 261 260 260 260
233 231 234 240 246 256 260 265 273 283 288 289 290 288 293 278 257 259 263 267 270 272 273 273 273 270 268 267 268 267 266 266 265 264 264 264 265 265 265 264 262 262 261 262 262 262 261
230 227 236 242 250 256 263 271 279 288 291 289 290 293 292 281 273 270 269 273 273 272 273 272 272 270 269 269 270 269 269 269 268 268 267 267 266 266 265 265 264 264 265 264 264 263 262
223 232 236 244 250 258 269 277 285 291 292 296 296 294 285 275 273 272 273 272 271 272 272 273 274 274 273 272 272 273 272 270 269 269 268 268 267 267 267 266 267 266 266 265 265 264 263
222 229 236 247 253 264 274 283 289 292 296 296 294 292 285 276 277 276 278 280 278 279 281 277 275 275 274 274 275 276 275 274 274 273 272 271 270 269 268 267 266 266 266 266 265 264 264
221 231 239 249 260 271 282 287 292 294 294 291 288 284 285 288 286 287 285 285 287 287 285 284 281 281 280 279 278 277 275 274 273 272 271 271 271 271 270 269 268 267 267 266 265 264 264
221 229 242 256 271 284 289 292 291 289 286 281 281 285 287 287 289 289 288 290 292 292 290 288 289 289 289 286 283 279 277 275 273 272 271 270 270 269 269 269 269 268 267 267 266 264 262
221 235 253 273 287 294 291 287 285 283 281 284 296 297 295 295 295 297 298 300 298 296 295 298 300 298 295 291 287 282 278 275 272 270 269 268 269 268 268 268 268 268 268 267 266 265 265
227 250 275 289 301 300 298 292 286 280 297 304 304 305 306 304 305 306 306 304 303 302 304 307 307 302 297 290 284 280 276 273 272 270 269 269 268 269 270 270 270 269 269 269 268 267 266
234 264 280 289 309 315 322 303 287 291 315 314 315 313 310 314 315 314 315 312 311 311 315 319 318 313 305 299 291 284 279 277 277 275 275 276 276 276 275 275 276 276 275 273 272 269 267
253 242 261 278 306 312 306 300 314 328 323 319 316 316 321 324 323 324 323 322 321 320 327 330 326 321 313 306 299 293 292 289 284 283 282 282 284 287 288 287 284 282 279 278 276 272 270
220 239 237 286 296 298 307 315 321 325 320 319 324 328 331 333 331 337 334 334 330 331 338 341 338 333 328 320 315 315 315 305 306 304 310 312 311 316 321 316 308 302 298 292 289 285 277
213 223 240 292 295 304 319 320 326 324 326 334 337 340 345 346 347 348 344 344 340 345 347 351 349 345 344 342 335 340 344 348 339 336 345 353 1 353 348 337 329 326 320 313 310 304 298
215 218 271 282 308 336 340 343 346 344 345 349 353 358 0 360 356 358 352 354 354 355 356 358 357 355 357 358 357 9 12 6 346 6 29 31 21 12 4 354 341 337 335 336 333 332 326
203 216 269 57 62 45 38 26 21 21 24 19 18 12 8 8 4 3 1 2 5 5 3 6 5 4 8 12 10 17 16 5 7 34 48 40 28 15 7 7 8 15 19 16 11 360 349
198 207 128 104 83 56 59 49 42 37 29 28 23 18 16 13 11 7 9 9 11 12 9 10 11 10 10 18 16 13 14 13 9 39 59 57 31 24 23 22 30 35 37 35 33 27 19
153 137 120 104 85 68 59 47 39 33 26 26 27 24 21 19 15 13 11 12 14 16 16 13 15 15 15 21 16 7 14 26 30 34 72 66 55 41 34 35 35 33 38 40 38 34 37
138 125 110 89 78 59 52 48 40 38 31 31 30 25 22 20 19 17 14 17 15 18 21 19 18 19 21 23 27 27 34 40 48 75 64 62 64 54 40 35 30 31 31 38 45 40 43
130 114 97 85 72 55 39 30 41 32 28 28 30 24 22 21 19 17 15 15 17 19 23 24 24 23 25 28 41 50 42 37 52 40 36 38 42 35 27 28 26 22 22 26 40 46 48
131 115 100 91 71 59 45 30 30 23 21 18 20 19 17 19 18 18 17 17 16 18 22 25 28 30 31 41 49 51 48 40 43 29 21 23 26 25 26 20 14 4 10 16 30 42 54
151 148 108 50 30 24 29 10 11 12 13 19 15 14 11 14 15 17 18 18 16 17 20 24 28 33 38 45 53 57 59 57 54 49 43 41 46 45 40 33 23 12 3 7 20 47 56
216 236 251 272 312 331 304 321 345 356 356 3 9 9 8 7 7 12 15 18 17 16 18 21 24 30 35 43 48 54 57 58 57 57 58 60 60 56 50 41 35 20 29 72 75 47 52
235 243 248 265 282 295 314 314 304 326 341 338 353 357 2 1 360 5 10 15 18 17 16 18 19 22 29 32 39 46 51 55 58 56 55 54 55 51 48 45 42 45 47 71 83 66 54
Height
10672 10676 10680 10683 10686 10689 10691 10693 10693 10694 10693 10692 10691 10690 10689 10688 10688 10688 10689 10692 10693 10693 10693 10693 10693 10693 10695 10695 10696 10696 10697 10700 10700 10701 10701 10703 10704 10704 10704 10701 10702 10705 10705 10707 10707 10708 10713
10666 10671 10675 10678 10681 10683 10686 10688 10688 10688 10688 10686 10684 10683 10683 10682 10682 10682 10683 10685 10687 10687 10687 10686 10686 10686 10687 10687 10687 10687 10689 10689 10689 10689 10690 10692 10693 10693 10692 10691 10691 10691 10693 10695 10696 10697 10700
10662 10667 10671 10673 10676 10678 10680 10682 10682 10683 10682 10680 10678 10677 10676 10675 10675 10677 10677 10678 10678 10679 10678 10678 10677 10677 10677 10677 10678 10677 10678 10679 10678 10677 10678 10679 10680 10680 10679 10680 10679 10679 10681 10682 10685 10684 10685
10658 10662 10666 10669 10671 10673 10676 10677 10677 10677 10676 10675 10672 10670 10669 10668 10668 10669 10669 10670 10671 10671 10670 10669 10668 10669 10667 10668 10669 10667 10666 10667 10666 10666 10665 10666 10667 10668 10668 10667 10666 10667 10667 10669 10671 10670 10672
10654 10658 10661 10664 10666 10669 10671 10672 10672 10672 10670 10669 10666 10664 10663 10662 10661 10662 10662 10662 10662 10661 10661 10660 10659 10660 10658 10657 10656 10657 10653 10654 10654 10653 10652 10653 10653 10654 10654 10653 10651 10653 10654 10652 10655 10656 10656
10650 10654 10657 10660 10662 10665 10666 10667 10667 10666 10665 10663 10661 10658 10657 10655 10655 10655 10654 10654 10654 10654 10652 10650 10649 10648 10646 10644 10642 10642 10642 10641 10641 10641 10640 10638 10637 10638 10638 10636 10635 10637 10635 10637 10641 10640 10638
10646 10650 10653 10656 10659 10661 10662 10662 10662 10661 10659 10657 10654 10652 10651 10649 10648 10647 10647 10646 10646 10645 10643 10641 10639 10637 10634 10631 10629 10629 10627 10627 10625 10624 10624 10623 10621 10620 10620 10619 10618 10618 10616 10616 10621 10623 10619
10642 10646 10650 10652 10656 10657 10657 10657 10656 10655 10653 10650 10647 10645 10644 10642 10640 10639 10638 10637 10636 10635 10632 10630 10626 10622 10618 10616 10615 10612 10611 10609 10607 10606 10604 10604 10603 10601 10600 10599 10598 10597 10597 10598 10599 10601 10600
10638 10643 10646 10650 10652 10652 10652 10651 10650 10648 10646 10643 10641 10639 10636 10634 10633 10632 10630 10628 10626 10623 10621 10617 10611 10606 10602 10600 10597 10596 10592 10589 10587 10585 10583 10583 10582 10580 10578 10577 10576 10574 10574 10575 10575 10576 10576
10636 10641 10644 10647 10647 10647 10647 10646 10645 10642 10639 10636 10634 10632 10629 10627 10626 10624 10621 10619 10614 10610 10609 10605 10597 10591 10585 10581 10576 10574 10570 10567 10565 10562 10560 10559 10557 10556 10554 10553 10550 10550 10548 10549 10549 10549 10544
10635 10639 10641 10642 10642 10642 10641 10640 10638 10635 10632 10629 10627 10625 10622 10621 10619 10617 10613 10609 10603 10596 10591 10589 10580 10572 10566 10560 10555 10550 10547 10543 10540 10538 10536 10533 10531 10530 10529 10528 10526 10524 10523 10522 10521 10522 10521
10633 10636 10638 10638 10638 10637 10636 10633 10631 10628 10625 10622 10620 10618 10617 10615 10613 10609 10604 10597 10591 10583 10574 10567 10559 10552 10546 10540 10535 10530 10526 10523 10519 10515 10512 10509 10507 10506 10504 10503 10502 10500 10497 10496 10496 10494 10497
10631 10633 10634 10634 10633 10631 10629 10627 10624 10621 10618 10617 10615 10614 10612 10609 10606 10600 10594 10587 10578 10568 10558 10546 10540 10533 10526 10519 10512 10506 10501 10498 10495 10493 10490 10487 10484 10482 10480 10478 10476 10473 10471 10467 10469 10466 10461
10628 10629 10630 10629 10627 10625 10623 10620 10617 10615 10614 10613 10611 10609 10607 10603 10597 10591 10584 10576 10565 10552 10539 10531 10522 10513 10503 10495 10488 10483 10479 10475 10473 10471 10468 10466 10462 10460 10457 10456 10453 10450 10445 10442 10440 10438 10432
10625 10625 10625 10624 10622 10620 10617 10615 10614 10613 10612 10610 10608 10606 10601 10596 10591 10584 10576 10565 10552 10538 10526 10516 10504 10492 10483 10474 10467 10463 10459 10456 10453 10452 10450 10445 10444 10443 10441 10438 10433 10429 10424 10420 10416 10412 10409
10621 10621 10621 10621 10620 10617 10615 10614 10613 10611 10609 10607 10604 10601 10596 10591 10584 10576 10567 10555 10541 10526 10513 10501 10487 10475 10464 10457 10451 10446 10443 10440 10438 10436 10433 10432 10431 10429 10425 10421 10417 10412 10406 10401 10396 10393 10389
10618 10619 10620 10619 10618 10616 10615 10613 10611 10609 10606 10603 10601 10596 10591 10586 10578 10570 10558 10547 10532 10516 10504 10489 10474 10461 10452 10445 10440 10435 10433 10431 10428 10426 10424 10423 10421 10418 10414 10409 10404 10397 10391 10386 10382 10377 10373
10615 10617 10618 10617 10616 10615 10613 10611 10608 10606 10603 10600 10597 10592 10587 10581 10573 10564 10553 10540 10526 10509 10496 10481 10465 10453 10445 10438 10433 10430 10427 10424 10421 10419 10417 10415 10412 10409 10405 10400 10393 10387 10381 10374 10369 10364 10360
10614 10616 10616 10615 10615 10613 10610 10608 10606 10604 10601 10598 10594 10589 10584 10577 10569 10560 10549 10536 10521 10504 10488 10472 10459 10448 10440 10433 10429 10426 10422 10420 10417 10415 10413 10410 10407 10403 10399 10394 10387 10381 10374 10365 10359 10354 10349
10612 10613 10614 10614 10613 10610 10609 10607 10604 10602 10599 10596 10592 10587 10581 10574 10566 10556 10545 10533 10518 10502 10485 10469 10455 10445 10437 10431 10426 10423 10420 10418 10415 10414 10411 10408 10406 10403 10399 10393 10387 10379 10371 10363 10355 10349 10343
10610 10612 10613 10612 10611 10610 10608 10606 10603 10601 10598 10595 10591 10586 10580 10572 10563 10554 10544 10531 10517 10501 10486 10471 10456 10444 10436 10431 10427 10423 10420 10417 10414 10412 10411 10409 10407 10403 10397 10391 10385 10376 10368 10360 10352 10346 10340
10610 10610 10611 10612 10611 10610 10608 10606 10604 10601 10599 10595 10590 10585 10578 10570 10563 10553 10543 10530 10518 10503 10488 10473 10459 10447 10438 10432 10428 10424 10420 10417 10415 10413 10411 10409 10407 10403 10397 10391 10385 10378 10370 10362 10355 10348 10341
10608 10610 10611 10612 10611 10610 10608 10606 10604 10602 10599 10595 10590 10584 10578 10570 10562 10553 10543 10532 10520 10506 10492 10477 10464 10451 10441 10434 10429 10425 10421 10418 10417 10417 10414 10410 10407 10404 10399 10393 10386 10380 10374 10367 10359 10353 10345
10609 10610 10611 10612 10611 10610 10609 10606 10604 10602 10599 10594 10589 10584 10578 10571 10563 10554 10545 10535 10523 10511 10497 10483 10468 10455 10444 10437 10432 10428 10423 10420 10419 10419 10416 10412 10409 10405 10401 10395 10389 10382 10377 10371 10365 10359 10350
10609 10610 10611 10611 10611 10610 10609 10607 10604 10602 10598 10594 10588 10584 10578 10571 10564 10555 10547 10537 10527 10516 10504 10493 10477 10464 10453 10443 10436 10432 10428 10426 10423 10421 10417 10414 10411 10407 10402 10396 10392 10386 10379 10373 10369 10365 10359
10609 10610 10610 10611 10610 10609 10608 10607 10604 10601 10597 10594 10589 10584 10578 10572 10566 10557 10549 10540 10531 10521 10511 10500 10489 10476 10463 10452 10444 10439 10435 10431 10429 10426 10422 10417 10413 10409 10404 10400 10394 10388 10382 10376 10372 10369 10365
10610 10610 10610 10610 10609 10608 10607 10605 10603 10600 10597 10593 10589 10584 10579 10573 10567 10560 10552 10544 10535 10526 10518 10509 10500 10490 10479 10468 10458 10451 10446 10440 10435 10431 10425 10419 10415 10412 10408 10403 10395 10387 10379 10376 10374 10373 10369
10609 10609 10609 10609 10608 10606 10605 10603 10601 10598 10595 10592 10588 10584 10580 10575 10569 10562 10555 10547 10539 10531 10524 10516 10508 10500 10491 10482 10473 10465 10457 10450 10445 10440 10435 10429 10422 10417 10413 10408 10401 10387 10378 10373 10374 10375 10373
10606 10606 10606 10606 10605 10604 10602 10600 10598 10596 10593 10590 10586 10583 10579 10574 10570 10564 10558 10551 10544 10536 10529 10522 10514 10506 10500 10493 10485 10477 10469 10462 10456 10450 10443 10438 10432 10426 10422 10416 10408 10396 10383 10379 10378 10380 10379